Regional Weather Roundup
Issued by NWS

Home | Current Version | Previous Version | Text Only | Print | Product List | Glossary Off
Versions: 1 2 3 4 5 6 7 8 9 10 11 12 13 14 15 16 17 18 19 20 21 22 23 24 25 26 27 28 29 30 31 32 33 34 35 36 37 38 39 40 41 42 43 44 45 46 47 48 49 50

000
ASUS45 KABQ 242201
RWRNM
NEW MEXICO REGIONAL WEATHER ROUNDUP
NATIONAL WEATHER SERVICE ALBUQUERQUE NM
300 PM MST SAT FEB 24 2018

NOTE: "FAIR" MEANS FEW OR NO CLOUDS BELOW 12,000 FEET AGL WITH NO
       SIGNIFICANT WEATHER OR OBSTRUCTIONS TO VISION.

      THIS PRODUCT IS RELEASED AS TWO VERSIONS.  ONE VERSION NEAR
      THE TOP OF THE HOUR CONTAINING PRELIMINARY DATA FROM ALBUQUERQUE
      AND OTHER STATIONS.  A FINAL VERSION WITH ADDITIONAL DATA IS
      ISSUED ABOUT 10 MINUTES AFTER THE HOUR.

NMZ501-503-504-510>518-242300-
NORTHWEST PLATEAU/NORTHCENTRAL MOUNTAINS

CITY           SKY/WX    TMP DP  RH WIND       PRES   REMARKS
FARMINGTON     FAIR      36   6  28 W10G20    30.00F WCI  28
LOS ALAMOS     FAIR      34  -2  21 E12       29.93S WCI  25
SANTA FE       FAIR      39   5  24 SW23G32   29.94S WCI  28
TAOS           FAIR      34   2  25 W16G23    29.93S WCI  24
ANGEL FIRE     FAIR      26   1  34 W22G30    29.86S WCI  11

$$
NMZ402-403-502-505>509-242300-
WESTCENTRAL MOUNTAINS/SOUTHWEST MOUNTAINS

CITY           SKY/WX    TMP DP  RH WIND       PRES   REMARKS
GALLUP         FAIR      34  19  54 SW15G25   30.02F WCI  24
GRANTS         FAIR      38   5  25 W17G28    30.02S WCI  29
SILVER CITY    FAIR      47   7  19 W12G23    30.05S

$$
NMZ407-409-411-412-242300-
SOUTHERN DESERTS

CITY           SKY/WX    TMP DP  RH WIND       PRES   REMARKS
DEMING         FAIR      52  11  19 W7        30.05F
LAS CRUCES     FAIR      53   2  12 SW9       30.05S
ALAMOGORDO     FAIR      50   1  13 N15       30.04F
T OR C         FAIR      52   2  13 CALM      30.00F

$$
NMZ519>523-242300-
CENTRAL VALLEYS/CENTRAL HIGHLANDS

CITY           SKY/WX    TMP DP  RH WIND       PRES   REMARKS
ALBUQUERQUE    FAIR      43   5  20 W9        30.00F
DOUBLE EAGLE   SUNNY     39   5  24 NW7G14    30.00F WCI  34
MORIARTY ARPT  FAIR      41   4  21 W20G31    29.98S
CLINES CORNERS FAIR      36   1  22 W28G45    29.93F WCI  23
BELEN          FAIR      45   4  18 SW8G20    30.02S
SOCORRO        FAIR      48   5  17 NE15G22   30.01F

$$
NMZ524>526-539-540-242300-
SOUTHCENTRAL MOUNTAINS

CITY           SKY/WX    TMP DP  RH WIND       PRES   REMARKS
RUIDOSO        FAIR      39   0  19 W18G33    29.98R WCI  30

$$
NMZ527>531-242300-
NORTHEAST HIGHLANDS/NORTHEAST PLAINS

CITY           SKY/WX    TMP DP  RH WIND       PRES   REMARKS
LAS VEGAS      FAIR      40 -12  10 NW15G25   29.86S WCI  32
RATON          FAIR      42 -15   8 W24       29.78S
CLAYTON        FAIR      48 -19   5 W13       29.78S

$$
NMZ532>537-242300-
EASTCENTRAL PLAINS

CITY           SKY/WX    TMP DP  RH WIND       PRES   REMARKS
SANTA ROSA     FAIR      47   3  16 W23G35    29.88F
TUCUMCARI      FAIR      55  -6   8 W17G23    29.83F
CANNON AFB     FAIR      50   0  12 W22G30    29.91R
CLOVIS AIRPORT FAIR      50   1  13 W22G30    29.90S

$$
NMZ028-029-538-242300-
SOUTHEAST PLAINS

CITY           SKY/WX    TMP DP  RH WIND       PRES   REMARKS
ROSWELL        FAIR      57   6  13 NW12      29.93F
ARTESIA        FAIR      57   5  12 NE14G23   29.95S
CARLSBAD       FAIR      60  13  15 N13G20    29.94R
HOBBS          SUNNY     57   7  13 NW16      29.95S


$$



USA.gov is the U.S. government's official web portal to all federal, state and local government web resources and services.